Location: Para Rapids
(2.5833°N, 113.6833°E)
Time: 14:49:42
(UTC+00:00)

Daily predictions for brighter satellites

Satellite Brightness Start Highest point End
(mag) Time Altitude Azimuth Time Altitude Azimuth Time Altitude Azimuth
Lacrosse 4 Rocket 3.8 12:01:42 10° WNW 12:04:56 21° WSW 12:08:12 10° SSW
Cosmos 1328 Rocket 4.2 12:01:42 10° SSW 12:05:54 53° W 12:10:04 10° N
Timation 1 Rocket 4.3 12:00:48 10° S 12:06:35 53° ESE 12:12:20 10° NNE
FUSE 4.1 12:03:34 10° WSW 12:08:52 69° NNW 12:11:36 29° NE
Ariane H10+ 3.6 12:04:22 10° WSW 12:11:15 67° SSE 12:19:57 30° E
Cosmos 1092 Rocket 4.2 12:07:32 10° S 12:13:48 72° W 12:20:06 10° N
Resurs 1-3 4.2 12:26:20 48° SW 12:26:52 52° WSW 12:31:05 10° NNW
Meteor 2-12 Rocket 4.3 12:27:12 59° SSE 12:28:22 77° E 12:34:30 10° N
Cosmos 2360 4.1 12:25:17 10° NNW 12:31:00 87° WSW 12:31:26 77° S
CZ-4B R/B 3.5 12:34:11 50° NNE 12:34:11 50° NNE 12:38:14 10° N
ARIANE 5 DEB (SYLDA) 4.3 12:19:40 10° W 12:33:27 67° S 12:33:28 67° S
ARIANE 5 DEB (SYLDA) 4.4 12:31:41 10° WSW 12:34:14 34° SW 12:34:14 34° SW
CZ-4B R/B 4.3 12:36:52 35° W 12:36:52 35° W 12:40:26 10° NW
Delta 7925 Rocket 4.1 12:35:25 10° NW 12:43:04 66° NNE 12:43:11 66° NNE
NOSS 3-4 (A) 4.4 12:36:39 10° N 12:44:25 52° ENE 12:44:25 52° ENE
NOSS 3-4 (C) 4.4 12:36:44 10° N 12:44:20 50° ENE 12:44:20 50° ENE
Okean O Rocket 4.2 13:01:44 15° N 13:01:44 15° N 13:02:26 10° N
MAQSAT/ARIANE V 3.7 12:51:34 10° W 12:58:25 37° W 12:58:25 37° W
Haruka 4.3 12:52:31 10° WNW 13:01:33 42° WSW 13:01:33 42° WSW
FALCON 9 R/B 4.0 13:47:43 10° NW 14:36:54 - SE 13:52:33 57° NNW
Cosmos 1943 Rocket 3.7 19:44:34 29° ESE 19:44:40 29° ESE 19:49:28 10° NE
CZ-3C R/B 2.7 19:55:45 40° ESE 19:55:45 40° ESE 20:04:40 10° ENE
ATLAS 3B R/B 4.5 19:55:45 16° SSE 19:58:53 22° ESE 20:03:53 10° ENE
Ariane H10 4.4 20:01:23 44° ESE 20:01:23 44° ESE 20:08:15 10° E
Cosmos 2100 Rocket 4.4 20:02:18 49° SE 20:03:39 60° E 20:09:45 10° NNE
Cosmos 44 4.4 20:05:12 43° ESE 20:05:19 43° ESE 20:10:23 10° NE
Ariane H10 3.8 20:06:13 56° SSW 20:07:13 60° S 20:11:45 10° ESE
Cosmos 2278 Rocket 2.5 20:14:24 54° NNW 20:14:24 54° NNW 20:18:53 10° N
ISS -1.1 20:17:47 19° NE 20:17:47 19° NE 20:18:53 10° NE
CZ-3 R/B 3.9 19:30:16 10° WNW 20:16:05 65° SW 20:26:43 10° SE
GPS 2-12 Rocket1 4.1 20:27:09 35° SE 20:27:09 35° SE 20:30:06 10° ESE
H-2A R/B 1.9 20:21:20 10° NNE 20:26:28 86° ESE 20:26:58 73° S
ARIANE 5 DEB (SYLDA) 3.4 20:30:11 66° SSW 20:30:18 66° S 20:39:51 10° ESE
Cosmos 1782 3.2 20:27:37 10° N 20:31:21 56° E 20:31:21 56° E
Lacrosse 5 3.7 20:36:56 18° NW 20:36:56 18° NW 20:39:18 10° NNW
Cosmos-2242 3.0 20:31:56 10° N 20:36:10 74° E 20:37:10 50° SSE
SL-16 R/B 4.4 20:43:43 13° NW 20:43:43 13° NW 20:44:24 10° NW
Cosmos 1953 Rocket 3.9 20:39:43 31° SSE 20:41:36 61° E 20:45:51 10° NNE
Cosmos 489 Rocket 4.5 20:40:17 46° SW 20:41:51 59° WNW 20:47:57 10° N
Meteor 2-8 Rocket 4.4 20:39:41 21° S 20:43:58 89° E 20:50:07 10° N
GPS 2-15 Rocket1 3.9 20:43:41 25° NW 20:46:08 50° NNE 20:50:42 10° E
ARIANE 5 R/B 3.9 20:43:59 10° NE 20:48:32 36° ESE 20:53:08 10° SSE
Hubble Space Telescope 3.1 20:48:18 11° SSE 20:48:53 12° SSE 20:50:23 10° SE
Cosmos 1825 Rocket 3.7 20:49:19 49° W 20:49:19 49° W 20:53:31 10° N
Cosmos 2346 Rocket 4.3 20:48:27 10° N 20:54:30 84° W 21:00:37 10° S
ASTRO E2 3.5 20:59:20 28° S 20:59:20 28° S 21:01:25 10° SE
Cosmos 1602 3.6 21:01:31 50° WSW 21:01:55 53° W 21:05:24 10° N
GPS 2-17 Rocket1 4.4 21:00:36 21° WNW 21:02:44 30° NNW 21:06:54 10° NE
ATLAS 5 CENTAUR R/B 4.3 21:02:39 17° SW 21:02:54 17° SSW 21:07:44 10° S
DMSP B5D2-2 4.1 20:58:50 10° S 21:03:58 55° WSW 21:09:05 10° NNW
Cosmos 1812 Rocket 3.4 20:59:37 10° N 21:03:58 80° W 21:08:23 10° S
Cosmos 1933 3.2 21:00:52 10° NNW 21:04:43 61° W 21:07:31 18° S
HETE-2 4.4 21:04:07 43° WSW 21:05:16 69° S 21:09:12 10° E
USA 305 3.6 21:06:45 25° NW 21:06:45 25° NW 21:09:15 10° N
Cosmos 1802 Rocket 4.3 21:04:58 19° SSW 21:09:17 46° W 21:15:22 10° NNW
Cosmos 220 Rocket 4.0 21:07:35 10° N 21:11:40 73° ENE 21:15:47 10° SSE
Cosmos 2221 3.9 21:08:11 10° NNE 21:12:06 39° E 21:16:02 10° SSE
BLOCK DM-SL R/B 2.9 21:14:43 24° WSW 21:16:58 67° S 21:22:38 10° E
Meteor 2-14 Rocket 4.5 21:11:34 10° NNW 21:17:27 55° W 21:23:23 10° S
Ariane 42P Rocket 3.1 21:16:47 23° SW 21:17:45 26° SSW 21:19:52 10° SE
SWIFT 4.4 21:14:58 10° NW 21:18:11 23° NNE 21:21:22 10° ENE
Meteor 1-26 Rocket 4.0 21:16:44 10° N 21:22:05 81° W 21:27:34 10° S
Cosmos 1833 Rocket 4.1 21:19:15 10° N 21:24:33 42° ENE 21:29:50 10° SE
BLOCK DM-SL R/B 1.0 21:24:07 28° SW 21:25:01 48° S 21:29:25 10° E
Cosmos 1943 Rocket 3.6 21:26:07 16° W 21:28:07 19° WNW 21:32:00 10° NNW
Cosmos 1939 Rocket 4.4 21:29:53 10° NW 21:32:23 17° WNW 21:33:35 15° W
Cosmos 1420 Rocket 4.0 21:28:02 10° SSW 21:33:16 85° WNW 21:38:32 10° N
Cosmos 2151 4.4 21:36:20 14° WSW 21:38:10 18° W 21:41:00 10° NW
ARGOS 3.8 21:36:07 10° NNW 21:41:01 36° WNW 21:45:56 10° SW
NOSS 3-1 (A) 4.0 21:39:25 12° WSW 21:42:31 22° WNW 21:46:08 10° NNW
USA 307 4.5 21:42:24 10° W 21:44:27 14° WNW 21:46:24 10° NNW
NOAA 12 4.4 21:41:43 10° N 21:46:48 48° WNW 21:51:55 10° SSW
ATLAS 3B R/B 3.3 21:43:20 10° SW 21:49:10 36° WNW 21:55:25 10° N
SJ-12 4.0 21:47:22 10° N 21:51:14 56° WNW 21:55:07 10° SSW
CZ-2D R/B 3.4 21:49:35 10° N 21:53:26 57° WNW 21:57:14 10° SSW
Tsikada Rocket 4.4 21:47:31 10° N 21:53:50 73° E 22:00:05 10° S
Cosmos 1371 Rocket 4.1 21:49:25 10° SSW 21:54:34 60° WNW 21:59:45 10° N
Cosmos 614 Rocket 4.4 21:51:03 10° NW 21:55:43 38° WSW 22:00:23 10° S
Cosmos 1656 Rocket 3.8 21:52:36 10° SSW 21:57:53 54° WNW 22:03:07 10° N
Centaur AC-72 3.4 21:45:11 10° WNW 21:59:54 81° SSW 22:05:51 10° ESE
USA 229 DEB 3.4 21:56:53 10° SSW 22:02:48 88° WNW 22:08:47 10° NNE
USA 229 3.4 21:57:01 10° SSW 22:02:55 90° WNW 22:08:53 10° NNE
FALCON 9 R/B 4.1 21:46:52 10° WNW 22:27:27 66° SW 22:34:52 10° SE
